This is the latest recevied weather packets stored in our database for station/object KD8DLP-13. If no packets are shown the sender has not sent any weather packets the latest 10 day(s).
| Time | Temp. | Humidity | Pressure | Rain* | Wind** | Luminosity | Snow |
|---|---|---|---|---|---|---|---|
| 1777992540 | 12.78° C | 40% | 1009.1 hPa | 0 mm | - | 322 W/m² | - |
| 1777992239 | 12.22° C | 42% | 1008.7 hPa | 0 mm | - | 353 W/m² | - |
| 1777991935 | 12.22° C | 41% | 1008.8 hPa | 0 mm | - | 324 W/m² | - |
| 1777991633 | 12.22° C | 42% | 1008.6 hPa | 0 mm | - | 258 W/m² | - |
| 1777991330 | 12.22° C | 42% | 1008.6 hPa | 0 mm | - | 360 W/m² | - |
| 1777991027 | 11.67° C | 44% | 1008.8 hPa | 0 mm | - | 364 W/m² | - |
| 1777990724 | 11.11° C | 45% | 1008.8 hPa | 0 mm | - | 244 W/m² | - |
| 1777990422 | 10.56° C | 45% | 1008.8 hPa | 0 mm | - | 209 W/m² | - |
| 1777989815 | 11.11° C | 45% | 1008.3 hPa | 0 mm | - | 154 W/m² | - |
| 1777989512 | 11.67° C | 46% | 1008.6 hPa | 0 mm | - | 190 W/m² | - |
| 1777989208 | 12.22° C | 47% | 1008.4 hPa | 0 mm | - | 195 W/m² | - |
| 1777988904 | 12.78° C | 48% | 1008.1 hPa | 0 mm | - | 250 W/m² | - |
| 1777988602 | 12.22° C | 50% | 1008.2 hPa | 0 mm | - | 366 W/m² | - |
| 1777988298 | 11.67° C | 53% | 1008.3 hPa | 0 mm | - | 260 W/m² | - |
| 1777987995 | 12.22° C | 55% | 1008.1 hPa | 0 mm | - | 286 W/m² | - |
| 1777987690 | 11.67° C | 58% | 1008.5 hPa | 0 mm | - | 251 W/m² | - |
| 1777987388 | 10.56° C | 60% | 1008.2 hPa | 0 mm | - | 314 W/m² | - |
| 1777987085 | 10.56° C | 65% | 1008.8 hPa | 0 mm | - | 181 W/m² | - |
| 1777986782 | 10° C | 66% | 1008.4 hPa | 0 mm | - | 165 W/m² | - |
| 1777986480 | 10° C | 65% | 1008.1 hPa | 0 mm | - | 134 W/m² | - |
| 1777986178 | 10° C | 68% | 1008 hPa | 0 mm | - | 139 W/m² | - |
| 1777985875 | 10.56° C | 70% | 1007.8 hPa | 0 mm | - | 136 W/m² | - |
| 1777985572 | 10.56° C | 72% | 1007.9 hPa | 0 mm | - | 148 W/m² | - |
| 1777985268 | 9.44° C | 73% | 1007.9 hPa | 0 mm | - | 169 W/m² | - |
| 1777984965 | 9.44° C | 74% | 1007.5 hPa | 0 mm | - | 118 W/m² | - |
* Rain latest hour (hover to see other rain measurements)
** Current wind speed in m/s (hover to see current wind gust speed)